Time,TemperatureF,DewpointF,PressureIn,WindDirection,WindDirectionDegrees,WindSpeedMPH,WindSpeedGustMPH,Humidity,HourlyPrecipIn,Conditions,Clouds,dailyrainin,SoftwareType,DateUTC
2013-01-31 00:03:00,55.0,55.0,-100.00,East,85,0.0,3.0,99,0.30,,,-99.99,,2013-01-31 05:03:00,
2013-01-31 00:11:00,55.0,55.0,-100.00,WSW,255,0.0,4.0,99,0.30,,,-99.99,,2013-01-31 05:11:00,
2013-01-31 00:22:00,55.0,55.0,-100.00,WSW,255,0.0,4.0,99,0.30,,,-99.99,,2013-01-31 05:22:00,
2013-01-31 00:32:00,55.0,55.0,-100.00,WSW,255,0.0,4.0,99,0.30,,,-99.99,,2013-01-31 05:32:00,
2013-01-31 00:42:00,55.0,54.0,-100.00,WNW,300,1.0,6.0,99,0.16,,,-99.99,,2013-01-31 05:42:00,
2013-01-31 00:52:00,55.0,54.0,-100.00,WNW,300,1.0,6.0,99,0.16,,,-99.99,,2013-01-31 05:52:00,
2013-01-31 01:01:00,55.0,54.0,-100.00,WNW,300,1.0,6.0,99,0.16,,,-99.99,,2013-01-31 06:01:00,
2013-01-31 01:10:00,55.0,54.0,-100.00,WNW,300,1.0,6.0,99,0.16,,,-99.99,,2013-01-31 06:10:00,
2013-01-31 09:03:00,41.0,22.0,-100.00,West,260,9.0,30.0,47,0.00,,,-99.99,,2013-01-31 14:03:00,
2013-01-31 09:11:00,41.0,22.0,-100.00,West,260,9.0,30.0,47,0.00,,,-99.99,,2013-01-31 14:11:00,
2013-01-31 09:22:00,40.0,22.0,-100.00,West,270,7.0,27.0,48,0.00,,,-99.99,,2013-01-31 14:22:00,
2013-01-31 09:32:00,40.0,22.0,-100.00,West,270,7.0,27.0,48,0.00,,,-99.99,,2013-01-31 14:32:00,
2013-01-31 09:42:00,40.0,22.0,-100.00,West,270,7.0,27.0,48,0.00,,,-99.99,,2013-01-31 14:42:00,
2013-01-31 09:52:00,41.0,22.0,-100.00,WNW,290,15.0,29.0,48,0.00,,,-99.99,,2013-01-31 14:52:00,
2013-01-31 10:03:00,41.0,22.0,-100.00,WNW,290,15.0,29.0,48,0.00,,,-99.99,,2013-01-31 15:03:00,
2013-01-31 10:12:00,40.0,22.0,-100.00,WSW,250,7.0,24.0,48,0.00,,,-99.99,,2013-01-31 15:12:00,
2013-01-31 10:23:00,41.0,23.0,-100.00,WNW,300,16.0,34.0,48,0.00,,,-99.99,,2013-01-31 15:23:00,
2013-01-31 10:32:00,41.0,23.0,-100.00,WNW,300,16.0,34.0,48,0.00,,,-99.99,,2013-01-31 15:32:00,
2013-01-31 10:42:00,40.0,22.0,-100.00,West,280,11.0,27.0,48,0.00,,,-99.99,,2013-01-31 15:42:00,
2013-01-31 10:52:00,41.0,21.0,-100.00,WSW,255,12.0,34.0,45,0.00,,,-99.99,,2013-01-31 15:52:00,
2013-01-31 11:03:00,41.0,21.0,-100.00,WSW,255,12.0,34.0,45,0.00,,,-99.99,,2013-01-31 16:03:00,
2013-01-31 11:12:00,41.0,21.0,-100.00,WSW,255,12.0,34.0,45,0.00,,,-99.99,,2013-01-31 16:12:00,
2013-01-31 11:22:00,41.0,21.0,-100.00,WNW,300,11.0,30.0,44,0.00,,,-99.99,,2013-01-31 16:22:00,
2013-01-31 11:33:00,41.0,21.0,-100.00,WNW,300,11.0,30.0,44,0.00,,,-99.99,,2013-01-31 16:33:00,
2013-01-31 11:42:00,42.0,21.0,-100.00,WSW,255,10.0,29.0,43,0.00,,,-99.99,,2013-01-31 16:42:00,
2013-01-31 11:52:00,43.0,22.0,-100.00,WSW,255,11.0,26.0,42,0.00,,,-99.99,,2013-01-31 16:52:00,
2013-01-31 12:03:00,43.0,22.0,-100.00,WSW,255,11.0,26.0,42,0.00,,,-99.99,,2013-01-31 17:03:00,
2013-01-31 12:13:00,41.0,19.0,-100.00,SW,230,14.0,26.0,41,0.00,,,-99.99,,2013-01-31 17:13:00,
2013-01-31 12:23:00,41.0,20.0,-100.00,West,275,17.0,30.0,43,0.00,,,-99.99,,2013-01-31 17:23:00,
2013-01-31 12:32:00,41.0,20.0,-100.00,West,275,17.0,30.0,43,0.00,,,-99.99,,2013-01-31 17:32:00,
2013-01-31 12:43:00,41.0,20.0,-100.00,West,275,17.0,30.0,43,0.00,,,-99.99,,2013-01-31 17:43:00,
2013-01-31 12:53:00,41.0,20.0,-100.00,West,275,17.0,30.0,43,0.00,,,-99.99,,2013-01-31 17:53:00,
2013-01-31 13:03:00,42.0,24.0,-100.00,NW,305,10.0,22.0,47,0.00,,,-99.99,,2013-01-31 18:03:00,
2013-01-31 13:12:00,40.0,22.0,-100.00,WSW,245,9.0,30.0,50,0.00,,,-99.99,,2013-01-31 18:12:00,
2013-01-31 13:22:00,40.0,25.0,-100.00,West,260,12.0,27.0,54,0.00,,,-99.99,,2013-01-31 18:22:00,
2013-01-31 13:32:00,40.0,25.0,-100.00,West,260,12.0,27.0,54,0.00,,,-99.99,,2013-01-31 18:32:00,
2013-01-31 13:43:00,40.0,22.0,-100.00,WNW,295,12.0,26.0,50,0.00,,,-99.99,,2013-01-31 18:43:00,
2013-01-31 13:52:00,41.0,23.0,-100.00,West,260,7.0,27.0,48,0.00,,,-99.99,,2013-01-31 18:52:00,
2013-01-31 14:03:00,41.0,23.0,-100.00,West,260,7.0,27.0,48,0.00,,,-99.99,,2013-01-31 19:03:00,
2013-01-31 14:12:00,39.0,21.0,-100.00,WSW,250,11.0,35.0,48,0.00,,,-99.99,,2013-01-31 19:12:00,
2013-01-31 14:22:00,39.0,21.0,-100.00,WSW,250,11.0,35.0,48,0.00,,,-99.99,,2013-01-31 19:22:00,
2013-01-31 14:33:00,39.0,21.0,-100.00,WSW,250,11.0,35.0,48,0.00,,,-99.99,,2013-01-31 19:33:00,
2013-01-31 14:42:00,39.0,20.0,-100.00,West,275,13.0,32.0,46,0.00,,,-99.99,,2013-01-31 19:42:00,
2013-01-31 14:52:00,39.0,20.0,-100.00,West,275,13.0,32.0,46,0.00,,,-99.99,,2013-01-31 19:52:00,
2013-01-31 15:03:00,39.0,20.0,-100.00,West,275,13.0,32.0,46,0.00,,,-99.99,,2013-01-31 20:03:00,
2013-01-31 15:12:00,38.0,18.0,-100.00,West,265,12.0,24.0,44,0.00,,,-99.99,,2013-01-31 20:12:00,
2013-01-31 15:22:00,39.0,18.0,-100.00,WNW,295,9.0,36.0,43,0.00,,,-99.99,,2013-01-31 20:22:00,
2013-01-31 15:32:00,39.0,18.0,-100.00,WNW,295,9.0,36.0,43,0.00,,,-99.99,,2013-01-31 20:32:00,
2013-01-31 15:42:00,38.0,17.0,-100.00,WSW,255,12.0,34.0,42,0.00,,,-99.99,,2013-01-31 20:42:00,
2013-01-31 15:52:00,38.0,17.0,-100.00,West,275,9.0,30.0,43,0.00,,,-99.99,,2013-01-31 20:52:00,
2013-01-31 16:02:00,38.0,17.0,-100.00,West,275,9.0,30.0,43,0.00,,,-99.99,,2013-01-31 21:02:00,
2013-01-31 16:12:00,38.0,17.0,-100.00,WNW,295,10.0,26.0,43,0.00,,,-99.99,,2013-01-31 21:12:00,
2013-01-31 16:22:00,38.0,17.0,-100.00,WNW,295,10.0,26.0,43,0.00,,,-99.99,,2013-01-31 21:22:00,
2013-01-31 16:32:00,38.0,17.0,-100.00,WNW,295,10.0,26.0,43,0.00,,,-99.99,,2013-01-31 21:32:00,
2013-01-31 16:42:00,37.0,20.0,-100.00,West,275,6.0,23.0,49,0.00,,,-99.99,,2013-01-31 21:42:00,
2013-01-31 16:52:00,37.0,20.0,-100.00,West,275,6.0,23.0,49,0.00,,,-99.99,,2013-01-31 21:52:00,
2013-01-31 17:03:00,37.0,18.0,-100.00,WNW,285,7.0,21.0,47,0.00,,,-99.99,,2013-01-31 22:03:00,
2013-01-31 17:11:00,37.0,18.0,-100.00,WNW,285,7.0,21.0,47,0.00,,,-99.99,,2013-01-31 22:11:00,
2013-01-31 17:22:00,36.0,17.0,-100.00,WNW,290,9.0,24.0,46,0.00,,,-99.99,,2013-01-31 22:22:00,
2013-01-31 17:33:00,36.0,17.0,-100.00,WNW,290,9.0,24.0,46,0.00,,,-99.99,,2013-01-31 22:33:00,
2013-01-31 17:42:00,36.0,16.0,-100.00,NW,305,18.0,33.0,44,0.00,,,-99.99,,2013-01-31 22:42:00,
2013-01-31 17:52:00,36.0,16.0,-100.00,NW,305,18.0,33.0,44,0.00,,,-99.99,,2013-01-31 22:52:00,
2013-01-31 18:03:00,35.0,15.0,-100.00,SW,235,6.0,28.0,44,0.00,,,-99.99,,2013-01-31 23:03:00,
2013-01-31 18:12:00,35.0,16.0,-100.00,WSW,245,10.0,30.0,45,0.00,,,-99.99,,2013-01-31 23:12:00,
2013-01-31 18:22:00,35.0,16.0,-100.00,WSW,245,10.0,30.0,45,0.00,,,-99.99,,2013-01-31 23:22:00,
2013-01-31 18:32:00,34.0,15.0,-100.00,WSW,255,10.0,32.0,45,0.00,,,-99.99,,2013-01-31 23:32:00,
2013-01-31 18:42:00,34.0,14.0,-100.00,West,270,14.0,35.0,45,0.00,,,-99.99,,2013-01-31 23:42:00,
2013-01-31 18:52:00,33.0,14.0,-100.00,West,265,8.0,32.0,45,0.00,,,-99.99,,2013-01-31 23:52:00,
2013-01-31 19:02:00,33.0,14.0,-100.00,West,265,8.0,32.0,45,0.00,,,-99.99,,2013-02-01 00:02:00,
2013-01-31 19:11:00,33.0,14.0,-100.00,West,275,12.0,27.0,46,0.00,,,-99.99,,2013-02-01 00:11:00,
2013-01-31 19:22:00,32.0,13.0,-100.00,West,275,6.0,19.0,46,0.00,,,-99.99,,2013-02-01 00:22:00,
2013-01-31 19:32:00,32.0,13.0,-100.00,West,275,6.0,19.0,46,0.00,,,-99.99,,2013-02-01 00:32:00,
2013-01-31 19:42:00,32.0,13.0,-100.00,WNW,290,7.0,16.0,46,0.00,,,-99.99,,2013-02-01 00:42:00,
2013-01-31 19:51:00,32.0,12.0,-100.00,WNW,290,9.0,18.0,44,0.00,,,-99.99,,2013-02-01 00:51:00,
2013-01-31 20:01:00,32.0,12.0,-100.00,WNW,290,9.0,18.0,44,0.00,,,-99.99,,2013-02-01 01:01:00,
2013-01-31 20:11:00,31.0,12.0,-100.00,WSW,250,4.0,27.0,45,0.00,,,-99.99,,2013-02-01 01:11:00,
2013-01-31 20:21:00,31.0,12.0,-100.00,WSW,245,5.0,18.0,44,0.00,,,-99.99,,2013-02-01 01:21:00,
2013-01-31 20:32:00,31.0,12.0,-100.00,WSW,245,5.0,18.0,44,0.00,,,-99.99,,2013-02-01 01:32:00,
2013-01-31 20:42:00,31.0,11.0,-100.00,West,275,6.0,15.0,43,0.00,,,-99.99,,2013-02-01 01:42:00,
2013-01-31 20:52:00,31.0,11.0,-100.00,West,275,4.0,15.0,44,0.00,,,-99.99,,2013-02-01 01:52:00,
2013-01-31 21:02:00,31.0,11.0,-100.00,West,275,4.0,15.0,44,0.00,,,-99.99,,2013-02-01 02:02:00,
2013-01-31 21:11:00,31.0,11.0,-100.00,WSW,250,5.0,12.0,44,0.00,,,-99.99,,2013-02-01 02:11:00,
2013-01-31 21:21:00,30.0,12.0,-100.00,WSW,240,1.0,7.0,47,0.00,,,-99.99,,2013-02-01 02:21:00,
2013-01-31 21:32:00,30.0,12.0,-100.00,WSW,240,1.0,7.0,47,0.00,,,-99.99,,2013-02-01 02:32:00,
2013-01-31 21:42:00,30.0,12.0,-100.00,WSW,250,3.0,9.0,47,0.00,,,-99.99,,2013-02-01 02:42:00,
2013-01-31 21:52:00,30.0,12.0,-100.00,WSW,250,3.0,9.0,47,0.00,,,-99.99,,2013-02-01 02:52:00,
2013-01-31 22:02:00,30.0,12.0,-100.00,WSW,255,3.0,12.0,47,0.00,,,-99.99,,2013-02-01 03:02:00,
2013-01-31 22:12:00,31.0,13.0,-100.00,WSW,255,5.0,10.0,47,0.00,,,-99.99,,2013-02-01 03:12:00,
2013-01-31 22:21:00,31.0,13.0,-100.00,WSW,255,5.0,10.0,47,0.00,,,-99.99,,2013-02-01 03:21:00,
2013-01-31 22:33:00,31.0,13.0,-100.00,WSW,255,5.0,10.0,47,0.00,,,-99.99,,2013-02-01 03:33:00,
2013-01-31 22:42:00,31.0,13.0,-100.00,West,260,4.0,11.0,48,0.00,,,-99.99,,2013-02-01 03:42:00,
2013-01-31 22:51:00,31.0,13.0,-100.00,WNW,300,6.0,18.0,48,0.00,,,-99.99,,2013-02-01 03:51:00,
2013-01-31 23:02:00,31.0,13.0,-100.00,WNW,300,6.0,18.0,48,0.00,,,-99.99,,2013-02-01 04:02:00,
2013-01-31 23:11:00,31.0,13.0,-100.00,West,260,7.0,16.0,47,0.00,,,-99.99,,2013-02-01 04:11:00,
2013-01-31 23:22:00,31.0,13.0,-100.00,West,260,7.0,16.0,47,0.00,,,-99.99,,2013-02-01 04:22:00,
2013-01-31 23:32:00,31.0,13.0,-100.00,SSW,205,5.0,14.0,48,0.00,,,-99.99,,2013-02-01 04:32:00,
2013-01-31 23:42:00,31.0,14.0,-100.00,West,270,4.0,11.0,49,0.00,,,-99.99,,2013-02-01 04:42:00,
2013-01-31 23:51:00,31.0,14.0,-100.00,West,270,4.0,11.0,49,0.00,,,-99.99,,2013-02-01 04:51:00,